{"data":{"norad_id":47486,"epoch":"2026-09-20T15:57:39.805920Z","epoch_age_seconds":64928,"freshness":"FRESH","line1":"1 47486U 21006CB  26263.66504405  .00003619  00000+0  11575-3 0  9997","line2":"2 47486  97.2177 302.4540 0005595 200.7695 159.3321 15.33037679313921","mean_motion":15.33037679,"eccentricity":0.0005595,"inclination_deg":97.2177,"raan_deg":302.454,"arg_perigee_deg":200.7695,"mean_anomaly_deg":159.3321,"bstar":0.00011575,"rev_number":31392,"period_min":93.931155099809,"perigee_km":462.92562625564,"apogee_km":470.58506078804,"semimajor_km":6844.8923435218,"source":"CELESTRAK","updated_at":"2026-09-21T09:00:07.525592Z"}}